Sault Ste Marie, MI

11:53 PM EST on December 14, 2017 (GMT -0500)
Sault Ste Marie Municipal / Sanderson Field

Weather History for KANJ - January, 2013

Change the Weather History Date:

Thursday, January 3, 2013

  Actual Average Record
Temperature  
Mean Temperature 21 °F 17 °F  
Max Temperature 28 °F 24 °F 44 °F (1897)
Min Temperature 14 °F 9 °F -28 °F (1981)
Degree Days  
Heating Degree Days 44 48  
Month to date heating degree days 147 144  
Since 1 July heating degree days 3116 3403  
Moisture  
Dew Point 14 °F    
Average Humidity 78    
Maximum Humidity 88    
Minimum Humidity 68    
Precipitation  
Precipitation 0.10 in 0.08 in 1.61 in (1897)
Month to date precipitation 0.13 0.23  
Year to date precipitation 0.13 0.23  
Snow  
Snow 1.90 in 1.10 in 5.40 in (1957)
Month to date snowfall 3.3 3.1  
Since 1 July snowfall 55.3 53.3  
Snow Depth 11.00 in    
Sea Level Pressure  
Sea Level Pressure 29.93 in    
Wind  
Wind Speed 10 mph (SW)    
Max Wind Speed 23 mph    
Max Gust Speed 33 mph    
Visibility 5 miles    
Events Snow    
T = Trace of Precipitation, MM = Missing Value Source: NWS Daily Summary

Daily Weather History Graph

Daily Weather History Graph

Search for Another Location

Airport or City:

Trip Planner

Search our weather history database for the weather conditions in past years. The results will help you decide how hot, cold, wet, or windy it might be!

Date:

Astronomy

Jan. 03, 2013 Rise Set
Actual Time 8:21 AM EST 5:03 PM EST
Civil Twilight 7:46 AM EST 5:38 PM EST
Nautical Twilight 7:08 AM EST 6:16 PM EST
Astronomical Twilight 6:31 AM EST 6:52 PM EST
Moon No Moon Rise 11:08 AM EST (1/3)
Length of Visible Light 9h 51m
Length of Day
8h 42m
Waning Gibbous, 65% of the Moon is Illuminated
Jan 3
Waning Gibbous
Jan 4
Last Quarter
Jan 11
New
Jan 18
First Quarter
Jan 26
Full

Hourly Weather History & Observations

Time (EST) Temp. Windchill Dew Point Humidity Pressure Visibility Wind Dir Wind Speed Gust Speed Precip Events Conditions
12:20 AM 14.0 °F 3.9 °F 9.0 °F 80% 30.04 in 4.0 mi East 6.9 mph - 0.01 in Snow Light Snow
12:41 AM 14.0 °F 3.9 °F 9.0 °F 80% 30.03 in 5.0 mi East 6.9 mph - 0.01 in Snow Light Snow
12:55 AM 14.0 °F 2.9 °F 9.0 °F 80% 30.06 in 5.0 mi East 8.1 mph - 0.01 in Snow Light Snow
1:36 AM 14.0 °F 3.9 °F 10.0 °F 84% 30.01 in 4.0 mi East 6.9 mph - 0.00 in Snow Light Snow
1:55 AM 14.0 °F 3.9 °F 10.0 °F 84% 30.04 in 5.0 mi East 6.9 mph - 0.01 in Snow Light Snow
2:55 AM 15.1 °F 5.2 °F 10.0 °F 80% 30.02 in 4.0 mi East 6.9 mph - 0.00 in Snow Light Snow
3:46 AM 15.1 °F 7.7 °F 10.9 °F 84% 29.97 in 2.0 mi East 4.6 mph - 0.01 in Snow Light Snow
3:55 AM 15.1 °F 7.7 °F 10.9 °F 84% 30.00 in 2.5 mi East 4.6 mph - 0.01 in Snow Light Snow
4:12 AM 15.1 °F 6.4 °F 10.9 °F 84% 29.95 in 3.0 mi East 5.8 mph - 0.00 in Snow Light Snow
4:55 AM 16.0 °F 10.4 °F 12.0 °F 84% 29.98 in 8.0 mi ENE 3.5 mph - 0.01 in Snow Light Snow
5:16 AM 16.0 °F 10.4 °F 12.0 °F 84% 29.93 in 2.0 mi Variable 3.5 mph - 0.00 in Snow Light Snow
5:24 AM 16.0 °F 10.4 °F 12.0 °F 84% 29.93 in 1.5 mi NNE 3.5 mph - 0.00 in Snow Light Snow
5:37 AM 16.0 °F 10.4 °F 12.0 °F 84% 29.92 in 2.5 mi ENE 3.5 mph - 0.01 in Snow Light Snow
5:44 AM 16.0 °F 10.4 °F 12.0 °F 84% 29.92 in 3.0 mi East 3.5 mph - 0.01 in Snow Light Snow
5:52 AM 15.8 °F 10.2 °F 12.2 °F 86% 29.92 in 2.5 mi East 3.5 mph - 0.01 in Snow Light Snow
5:55 AM 16.0 °F 8.8 °F 12.9 °F 88% 29.96 in 2.5 mi East 4.6 mph - 0.01 in Snow Light Snow
6:10 AM 17.1 °F 11.7 °F 12.9 °F 84% 29.92 in 3.0 mi East 3.5 mph - 0.00 in Snow Light Snow
6:22 AM 17.1 °F 10.0 °F 12.9 °F 84% 29.92 in 4.0 mi East 4.6 mph - 0.00 in Snow Light Snow
6:34 AM 17.1 °F - 12.9 °F 84% 29.92 in 1.8 mi Calm Calm - 0.01 in Snow Light Snow
6:52 AM 17.6 °F 12.3 °F 12.2 °F 79% 29.91 in 2.0 mi East 3.5 mph - 0.01 in Snow Light Snow
6:55 AM 17.1 °F 11.7 °F 12.9 °F 84% 29.95 in 2.0 mi ENE 3.5 mph - 0.01 in Snow Light Snow
7:03 AM 17.1 °F 11.7 °F 12.9 °F 84% 29.91 in 3.0 mi East 3.5 mph - 0.00 in Snow Light Snow
7:42 AM 17.1 °F - 12.9 °F 84% 29.90 in 3.0 mi Calm Calm - 0.01 in Snow Light Snow
7:55 AM 17.1 °F - 12.0 °F 81% 29.94 in 4.0 mi Calm Calm - 0.01 in Snow Light Snow
8:55 AM 17.1 °F - 12.9 °F 84% 29.93 in 4.0 mi Calm Calm - 0.00 in Snow Light Snow
9:33 AM 18.0 °F - 12.9 °F 81% 29.88 in 1.8 mi Calm Calm - 0.00 in Snow Light Snow
9:51 AM 17.6 °F 9.3 °F 14.0 °F 86% 29.88 in 2.0 mi SSW 5.8 mph - 0.00 in Snow Light Snow
9:55 AM 19.0 °F 11.1 °F 14.0 °F 81% 29.92 in 2.0 mi SW 5.8 mph - 0.00 in Snow Light Snow
10:12 AM 19.0 °F 12.3 °F 15.1 °F 85% 29.89 in 5.0 mi SW 4.6 mph - 0.00 in Snow Light Snow
10:22 AM 19.9 °F 13.4 °F 15.1 °F 81% 29.89 in 1.8 mi SW 4.6 mph - 0.01 in Snow Light Snow
10:43 AM 19.9 °F 13.4 °F 16.0 °F 85% 29.88 in 2.0 mi SW 4.6 mph - 0.01 in Snow Light Snow
10:53 AM 21.2 °F 12.6 °F 17.6 °F 86% 29.88 in 1.0 mi WSW 6.9 mph - 0.01 in Snow Light Snow
10:55 AM 21.9 °F 12.5 °F 18.0 °F 85% 29.91 in 1.0 mi WSW 8.1 mph - 0.01 in Snow Light Snow
11:25 AM 23.0 °F 13.1 °F 19.0 °F 85% 29.88 in 2.5 mi West 9.2 mph - 0.01 in Snow Light Snow
11:33 AM 24.1 °F 14.4 °F 19.0 °F 81% 29.88 in 4.0 mi West 9.2 mph - 0.01 in Snow Light Snow
11:55 AM 25.0 °F 13.6 °F 19.9 °F 81% 29.90 in 6.0 mi West 12.7 mph 19.6 mph 0.01 in Snow Light Snow
12:16 PM 27.0 °F 16.1 °F 21.9 °F 81% 29.87 in 2.0 mi West 12.7 mph 21.9 mph 0.00 in Snow Light Snow
12:38 PM 27.0 °F 14.7 °F 19.9 °F 75% 29.87 in 3.0 mi NW 16.1 mph 27.6 mph 0.01 in Snow Light Snow
12:55 PM 27.0 °F 14.7 °F 19.9 °F 75% 29.91 in 8.0 mi WNW 16.1 mph 26.5 mph 0.01 in Snow Light Snow
1:55 PM 26.1 °F 15.0 °F 17.1 °F 69% 29.91 in 7.0 mi WNW 12.7 mph 24.2 mph 0.00 in Snow Light Snow
2:55 PM 25.0 °F 12.6 °F 17.1 °F 72% 29.92 in 5.0 mi WNW 15.0 mph 24.2 mph 0.00 in Snow Light Snow
3:55 PM 25.0 °F 12.6 °F 16.0 °F 69% 29.93 in 7.0 mi NW 15.0 mph 24.2 mph 0.00 in Snow Light Snow
4:55 PM 25.0 °F 11.7 °F 18.0 °F 75% 29.95 in 7.0 mi WNW 17.3 mph 23.0 mph 0.00 in Snow Light Snow
5:55 PM 25.0 °F 12.2 °F 16.0 °F 69% 29.96 in 10.0 mi West 16.1 mph 23.0 mph 0.00 in   Overcast
6:55 PM 25.0 °F 12.6 °F 16.0 °F 69% 29.96 in 10.0 mi WNW 15.0 mph 24.2 mph N/A   Overcast
7:55 PM 24.1 °F 12.5 °F 15.1 °F 69% 29.96 in 10.0 mi WSW 12.7 mph - N/A   Overcast
8:29 PM 24.1 °F 11.5 °F 14.0 °F 65% 29.91 in 10.0 mi WSW 15.0 mph 19.6 mph N/A   Overcast
8:45 PM 23.0 °F 11.7 °F 14.0 °F 68% 29.90 in 10.0 mi SW 11.5 mph - N/A   Overcast
8:55 PM 23.0 °F 12.4 °F 14.0 °F 68% 29.93 in 10.0 mi WSW 10.4 mph - N/A   Overcast
9:32 PM 23.0 °F 12.4 °F 12.9 °F 65% 29.89 in 10.0 mi WSW 10.4 mph - N/A   Scattered Clouds
9:55 PM 21.0 °F 9.9 °F 12.0 °F 68% 29.91 in 10.0 mi WSW 10.4 mph - N/A   Clear
10:55 PM 21.0 °F 9.3 °F 12.9 °F 71% 29.86 in 10.0 mi SW 11.5 mph - N/A   Clear
11:55 PM 23.0 °F 10.1 °F 16.0 °F 74% 29.81 in 10.0 mi SW 15.0 mph - N/A   Clear